Voltar ao catálogo

YAM-12

AtivoCiênciaSSO
NORAD 69003·PAYLOAD·🇺🇸 United States

Lançado May 3, 2026 de Vandenberg Space Force Base

Loading…

Próximas Passagens (próximas 24 horas)

TLE

AtualizadoSource: Space-Track

Época: Sep 14, 2026, 11:00 UTC

1 69003U 26100Z   26257.45858426  .00001215  00000-0  13003-3 0  9990
2 69003  97.7761 153.3169 0001609  74.5798 285.5598 14.90531011 19985

Acompanhe YAM-12 em tempo real com AllMySat

Download on the App Store